Weather History for KPKB - January, 2014

Change the Weather History Date:

Tuesday, January 14, 2014

  Actual Average Record
Temperature  
Mean Temperature 44 °F 31 °F  
Max Temperature 48 °F 40 °F 74 °F (1995)
Min Temperature 40 °F 23 °F -4 °F (1929)
Degree Days  
Heating Degree Days 21 34  
Month to date heating degree days 474 469  
Cooling Degree Days 0 0  
Month to date cooling degree days 0 0  
Year to date cooling degree days 0 0  
Moisture  
Dew Point 38 °F    
Average Humidity 71    
Maximum Humidity 93    
Minimum Humidity 49    
Precipitation  
Precipitation 0.18 in 0.09 in 0.65 in (2007)
Month to date precipitation 1.64 1.31  
Year to date precipitation 1.64 1.31  
Sea Level Pressure  
Sea Level Pressure 29.82 in    
Wind  
Wind Speed 7 mph (WSW)    
Max Wind Speed 14 mph    
Max Gust Speed 19 mph    
Visibility 8 miles    
Events Rain    
T = Trace of Precipitation, MM = Missing Value Source: NWS Daily Summary

Daily Weather History Graph

Daily Weather History Graph

Search for Another Location

Airport or City:

Trip Planner

Search our weather history database for the weather conditions in past years. The results will help you decide how hot, cold, wet, or windy it might be!

Date:

Astronomy

Jan. 14, 2014 Rise Set
Actual Time 7:44 AM EST 5:25 PM EST
Civil Twilight 7:14 AM EST 5:55 PM EST
Nautical Twilight 6:41 AM EST 6:28 PM EST
Astronomical Twilight 6:09 AM EST 7:00 PM EST
Moon 4:29 PM EST (1/14) 6:18 AM EST (1/14)
Length of Visible Light 10h 40m
Length of Day
9h 41m
Waxing Gibbous, 98% of the Moon is Illuminated
Jan 14
Waxing Gibbous
Jan 15
Full
Jan 24
Last Quarter
Jan 30
New
Feb 6
First Quarter

Hourly Weather History & Observations

Time (EST) Temp. Windchill Dew Point Humidity Pressure Visibility Wind Dir Wind Speed Gust Speed Precip Events Conditions
12:53 AM 46.9 °F - 43.0 °F 86% 29.77 in 10.0 mi SSW 6.9 mph - 0.02 in Rain Light Rain
1:39 AM 46.0 °F 41.0 °F 43.0 °F 89% 29.76 in 10.0 mi SSW 10.4 mph - 0.00 in Rain Light Rain
1:53 AM 46.0 °F 41.9 °F 43.0 °F 89% 29.76 in 10.0 mi SSW 8.1 mph - 0.00 in   Overcast
2:08 AM 46.0 °F 41.9 °F 43.0 °F 89% 29.76 in 10.0 mi SSW 8.1 mph - 0.00 in Rain Light Rain
2:53 AM 46.0 °F 41.9 °F 44.1 °F 93% 29.78 in 5.0 mi SW 8.1 mph - 0.00 in Rain Light Rain
3:53 AM 46.0 °F 44.8 °F 44.1 °F 93% 29.78 in 8.0 mi SW 3.5 mph - 0.02 in Rain Light Rain
4:31 AM 45.0 °F 43.5 °F 44.1 °F 97% 29.77 in 9.0 mi SW 3.5 mph - 0.01 in Rain Light Rain
4:53 AM 46.0 °F 43.9 °F 44.1 °F 93% 29.78 in 10.0 mi SW 4.6 mph - 0.01 in Rain Light Rain
5:03 AM 45.0 °F 42.6 °F 44.1 °F 97% 29.78 in 9.0 mi SSW 4.6 mph - 0.00 in Rain Light Rain
5:18 AM 45.0 °F 43.5 °F 44.1 °F 97% 29.78 in 5.0 mi Variable 3.5 mph - 0.02 in Rain Light Rain
5:28 AM 45.0 °F 43.5 °F 44.1 °F 97% 29.77 in 4.0 mi SW 3.5 mph - 0.04 in Rain Light Rain
5:44 AM 45.0 °F 41.8 °F 44.1 °F 97% 29.77 in 10.0 mi South 5.8 mph - 0.05 in Rain Light Rain
5:53 AM 45.0 °F 42.6 °F 44.1 °F 97% 29.78 in 10.0 mi SW 4.6 mph - 0.05 in   Overcast
6:27 AM 45.0 °F 40.6 °F 44.1 °F 97% 29.79 in 2.0 mi West 8.1 mph - 0.07 in Rain Rain
6:34 AM 45.0 °F 43.5 °F 43.0 °F 93% 29.79 in 6.0 mi West 3.5 mph - 0.07 in Rain Light Rain
6:53 AM 45.0 °F 41.8 °F 43.0 °F 93% 29.78 in 10.0 mi NW 5.8 mph - 0.08 in   Overcast
7:53 AM 44.1 °F 42.5 °F 42.1 °F 93% 29.81 in 8.0 mi WNW 3.5 mph - 0.00 in   Overcast
8:08 AM 43.0 °F 40.3 °F 41.0 °F 93% 29.80 in 7.0 mi NNW 4.6 mph - N/A   Overcast
8:53 AM 43.0 °F 39.5 °F 39.9 °F 89% 29.84 in 6.0 mi WNW 5.8 mph - N/A   Overcast
9:53 AM 43.0 °F 40.3 °F 39.0 °F 86% 29.87 in 6.0 mi WNW 4.6 mph - N/A   Overcast
10:50 AM 42.8 °F 40.1 °F 39.2 °F 87% 29.85 in 6.0 mi NW 4.6 mph - N/A   Mostly Cloudy
10:53 AM 43.0 °F 40.3 °F 39.0 °F 86% 29.86 in 7.0 mi NW 4.6 mph - N/A   Mostly Cloudy
11:53 AM 44.1 °F 39.0 °F 37.9 °F 79% 29.84 in 9.0 mi WNW 9.2 mph - N/A   Mostly Cloudy
12:53 PM 46.0 °F 40.6 °F 37.0 °F 71% 29.83 in 10.0 mi West 11.5 mph - N/A   Mostly Cloudy
1:53 PM 45.0 °F 40.6 °F 35.1 °F 68% 29.84 in 10.0 mi West 8.1 mph - N/A   Mostly Cloudy
2:00 PM 45.0 °F 39.7 °F 34.0 °F 65% 29.84 in 10.0 mi West 10.4 mph - N/A   Partly Cloudy
2:53 PM 46.9 °F - 33.1 °F 59% 29.86 in 10.0 mi West 9.2 mph - N/A   Partly Cloudy
3:53 PM 48.0 °F - 30.9 °F 52% 29.86 in 10.0 mi West 6.9 mph - N/A   Clear
4:53 PM 46.9 °F - 28.9 °F 50% 29.86 in 10.0 mi WSW 6.9 mph - N/A   Clear
5:53 PM 44.1 °F 41.5 °F 28.9 °F 55% 29.86 in 10.0 mi SSW 4.6 mph - N/A   Clear
6:53 PM 41.0 °F 38.0 °F 30.0 °F 65% 29.86 in 10.0 mi South 4.6 mph - N/A   Clear
7:53 PM 41.0 °F 37.1 °F 30.0 °F 65% 29.87 in 10.0 mi South 5.8 mph - N/A   Clear
8:53 PM 42.1 °F 37.7 °F 30.0 °F 62% 29.88 in 10.0 mi South 6.9 mph - N/A   Overcast
9:53 PM 43.0 °F 38.8 °F 30.0 °F 60% 29.88 in 10.0 mi South 6.9 mph - N/A   Overcast
10:53 PM 44.1 °F 39.0 °F 30.0 °F 58% 29.86 in 10.0 mi South 9.2 mph - N/A   Overcast
11:53 PM 44.1 °F 39.5 °F 30.0 °F 58% 29.85 in 10.0 mi SW 8.1 mph - N/A   Overcast